CW9769 Weather Reports


time (UTC)temp
F
wind
direction
speed
knots
gust
knots
rain 1hr
in
rain 24hr
in
rain mn
in
humidity
%
barometer
mb
20260510191742 59 8 7.8 13.9 0.00 0.32 0.00 41 1018.2
20260510190709 59 36 9.6 14.8 0.00 0.32 0.00 36 1018.2
20260510185708 59 19 9.6 14.8 0.00 0.32 0.00 36 1018.2
20260510184707 60 4 6.1 12.2 0.00 0.32 0.00 40 1017.9
20260510183707 59 21 5.2 11.3 0.00 0.32 0.00 39 1017.9
20260510182706 60 22 7.0 13.9 0.00 0.32 0.00 40 1017.9
20260510181705 59 38 6.1 13.9 0.00 0.32 0.00 35 1017.6
20260510180633 59 38 8.7 13.0 0.00 0.32 0.00 33 1017.6
20260510175632 59 53 5.2 13.9 0.00 0.32 0.00 35 1017.7
20260510174630 59 29 3.5 13.9 0.00 0.32 0.00 34 1017.7
20260510173630 60 33 7.8 12.2 0.00 0.32 0.00 38 1017.7
20260510172629 59 39 6.1 11.3 0.00 0.32 0.00 36 1017.7
20260510171628 59 2 3.5 13.0 0.00 0.32 0.00 36 1017.7
20260510170627 59 11 8.7 12.2 0.00 0.32 0.00 41 1017.7
20260510165626 59 37 5.2 12.2 0.00 0.32 0.00 42 1017.7
20260510164625 58 40 4.3 12.2 0.00 0.32 0.00 41 1018.0
20260510163624 58 64 4.3 18.2 0.00 0.32 0.00 38 1017.7
20260510162624 58 24 6.1 18.2 0.00 0.32 0.00 39 1017.7
20260510161623 57 14 6.1 10.4 0.00 0.32 0.00 42 1017.7
20260510160623 57 23 6.1 10.4 0.00 0.32 0.00 37 1017.7
20260510155622 57 58 3.5 9.6 0.00 0.32 0.00 42 1017.3
20260510154621 57 52 5.2 9.6 0.00 0.32 0.00 43 1017.3
20260510153620 57 35 2.6 9.6 0.00 0.32 0.00 48 1017.0
20260510152547 57 59 4.3 9.6 0.00 0.32 0.00 46 1017.0
20260510151546 57 68 5.2 8.7 0.00 0.32 0.00 50 1017.0
20260510150545 56 40 1.7 11.3 0.00 0.32 0.00 51 1017.0
20260510145544 56 28 3.5 11.3 0.00 0.32 0.00 46 1016.7
20260510144441 55 49 1.7 10.4 0.00 0.32 0.00 50 1016.7
20260510143441 55 81 1.7 7.8 0.00 0.32 0.00 51 1016.6
20260510142439 54 84 3.5 8.7 0.00 0.32 0.00 51 1016.6
20260510141438 54 79 3.5 11.3 0.00 0.32 0.00 52 1016.6
20260510140437 53 62 6.1 11.3 0.00 0.32 0.00 52 1016.2
20260510135436 53 39 6.1 10.4 0.00 0.32 0.00 49 1016.6
20260510134405 52 52 4.3 11.3 0.00 0.32 0.00 54 1016.6
20260510133404 52 63 7.0 12.2 0.00 0.32 0.00 53 1016.2
20260510132403 53 63 6.1 12.2 0.00 0.32 0.00 54 1016.2
20260510131331 53 63 4.3 8.7 0.00 0.32 0.00 55 1015.9
20260510130331 52 96 2.6 8.7 0.00 0.32 0.00 55 1015.8
20260510125330 51 60 3.5 7.8 0.00 0.32 0.00 56 1015.5
20260510124329 50 60 2.6 7.8 0.00 0.32 0.00 62 1015.5
20260510123257 49 69 3.5 10.4 0.00 0.32 0.00 64 1015.1
20260510122257 48 57 6.1 10.4 0.00 0.32 0.00 63 1015.1
20260510121256 48 51 5.2 10.4 0.00 0.32 0.00 66 1015.1
20260510120255 48 65 6.1 9.6 0.00 0.32 0.00 71 1014.8
20260510115254 48 61 3.5 8.7 0.00 0.32 0.00 74 1014.4
20260510114222 48 68 2.6 8.7 0.00 0.32 0.00 74 1014.4
20260510113221 47 50 6.1 8.7 0.00 0.32 0.00 74 1014.1
20260510112221 47 58 2.6 7.8 0.00 0.32 0.00 76 1013.7
20260510111220 47 63 3.5 7.8 0.00 0.32 0.00 76 1013.4
20260510110228 47 53 5.2 7.8 0.00 0.32 0.00 76 1013.4
20260510104845 48 64 2.6 7.0 0.00 0.32 0.00 77 1013.1
20260510103845 48 66 2.6 6.1 0.00 0.32 0.00 79 1012.9
20260510102844 48 57 2.6 9.6 0.00 0.32 0.00 79 1012.8
20260510101843 48 67 4.3 8.7 0.00 0.32 0.00 78 1012.4
20260510100841 48 62 2.6 4.3 0.00 0.32 0.00 79 1012.4
20260510095840 48 61 2.6 5.2 0.00 0.32 0.00 80 1012.5
20260510094839 47 59 1.7 5.2 0.00 0.32 0.00 81 1012.1
20260510093838 47 27 0.9 1.7 0.00 0.32 0.00 85 1012.1
20260510092837 46 17 0.9 1.7 0.00 0.32 0.00 86 1012.1
20260510091836 46 17 0.9 1.7 0.00 0.32 0.00 89 1012.1
20260510090836 46 17 0.0 1.7 0.00 0.32 0.00 88 1011.7
20260510085835 46 17 0.9 1.7 0.00 0.32 0.00 89 1011.4
20260510084833 46 17 0.0 1.7 0.00 0.32 0.00 89 1011.4
20260510083833 46 17 1.7 1.7 0.00 0.32 0.00 87 1011.1
20260510082831 46 17 0.0 0.0 0.00 0.32 0.00 85 1011.1
20260510081830 47 17 0.0 1.7 0.00 0.32 0.00 80 1011.1
20260510080829 47 17 0.0 1.7 0.00 0.32 0.00 80 1011.1
20260510075829 47 16 0.9 1.7 0.00 0.32 0.00 80 1011.1
20260510074757 48 16 0.0 1.7 0.00 0.32 0.00 80 1010.8
20260510073756 48 49 0.9 1.7 0.00 0.32 0.00 76 1010.8
20260510072724 48 106 0.9 1.7 0.00 0.32 0.00 74 1010.1
20260510071723 49 145 0.9 2.6 0.00 0.32 0.00 72 1010.1
20260510070723 49 78 0.9 4.3 0.00 0.32 0.00 72 1009.8
20260510065722 49 72 0.9 4.3 0.00 0.32 0.00 72 1009.8
20260510064650 50 57 1.7 5.2 0.00 0.32 0.00 71 1009.8
20260510063649 50 80 1.7 9.6 0.00 0.32 0.00 71 1009.8
20260510062648 50 88 4.3 9.6 0.00 0.32 0.00 70 1009.8
20260510061647 51 62 2.6 11.3 0.00 0.32 0.00 70 1009.8
20260510060646 52 76 5.2 14.8 0.00 0.32 0.00 72 1009.5
20260510055645 53 67 6.1 14.8 0.00 0.32 0.00 74 1009.2
20260510054645 54 47 8.7 13.0 0.00 0.32 0.00 83 1009.2
20260510053644 54 1 9.6 12.2 0.00 0.32 0.00 88 1008.9
20260510052643 54 339 1.7 3.5 0.00 0.32 0.00 89 1008.5
20260510051642 54 326 1.7 7.8 0.00 0.32 0.00 88 1008.2
20260510050610 55 338 1.7 7.8 0.00 0.32 0.00 88 1008.2
20260510045609 54 345 3.5 8.7 0.00 0.32 0.00 89 1007.8
20260510044609 55 347 2.6 10.4 0.00 0.32 0.00 88 1007.9
20260510043536 54 27 6.1 10.4 0.00 0.32 0.00 89 1007.8
20260510042536 54 253 1.7 3.5 0.00 0.32 0.00 88 1006.8
20260510041535 54 270 1.7 2.6 0.00 0.32 0.00 87 1006.8
20260510040501 55 264 0.9 4.3 0.00 0.32 0.00 86 1006.8
20260510035501 55 258 0.9 6.1 0.01 0.32 0.32 86 1006.8
20260510034500 55 258 3.5 6.1 0.01 0.32 0.32 86 1006.8
20260510033459 55 272 1.7 3.5 0.03 0.32 0.32 87 1006.8
20260510032458 55 259 0.9 1.7 0.03 0.32 0.32 87 1006.8
20260510031425 56 256 0.9 2.6 0.03 0.32 0.32 88 1006.8
20260510030424 56 259 0.9 4.3 0.03 0.32 0.32 87 1006.8
20260510025424 56 300 0.9 7.0 0.02 0.31 0.31 87 1006.4
20260510024423 56 268 1.7 7.8 0.05 0.31 0.31 86 1006.8
20260510023422 56 294 4.3 7.8 0.10 0.29 0.29 86 1007.1
20260510022421 56 265 4.3 7.8 0.10 0.29 0.29 86 1006.7
20260510021420 56 278 5.2 7.8 0.10 0.29 0.29 86 1006.7
20260510020419 56 290 4.3 16.5 0.10 0.29 0.29 85 1006.4
20260510015419 57 305 6.1 21.7 0.10 0.29 0.29 84 1006.7
20260510014418 57 309 11.3 21.7 0.07 0.26 0.26 79 1007.0
20260510013417 56 269 1.7 3.5 0.00 0.19 0.19 85 1006.0
20260510012314 56 272 1.7 3.5 0.00 0.19 0.19 85 1005.6
20260510011313 56 271 0.9 3.5 0.00 0.19 0.19 86 1005.6
20260510010312 56 282 1.7 4.3 0.00 0.19 0.19 85 1005.6
20260510005311 56 298 1.7 4.3 0.00 0.19 0.19 83 1005.6
20260510004311 56 294 1.7 8.7 0.00 0.19 0.19 83 1005.3
20260510003239 57 296 2.6 10.4 0.01 0.20 0.19 82 1005.3
20260510002238 57 295 5.2 10.4 0.01 0.20 0.19 82 1005.3
20260510001206 57 297 4.3 10.4 0.03 0.21 0.19 83 1005.6
20260510000032 57 308 4.3 10.4 0.05 0.21 0.19 83 1005.6
20260509235031 57 319 7.0 14.8 0.07 0.22 0.19 83 1005.6
20260509233959 57 311 10.4 15.6 0.15 0.22 0.19 83 1005.6
20260509232958 56 300 8.7 15.6 0.18 0.22 0.18 83 1005.2
20260509231957 56 316 8.7 15.6 0.17 0.22 0.18 84 1005.5
20260509230956 56 316 10.4 19.1 0.16 0.21 0.16 84 1005.5
20260509225853 56 321 8.7 26.9 0.14 0.19 0.14 84 1005.5
20260509224852 57 355 13.9 32.2 0.11 0.17 0.11 85 1005.6
20260509223820 66 350 20.0 32.2 0.01 0.08 0.01 66 1005.5
20260509222819 68 301 8.7 19.1 0.00 0.08 0.00 57 1003.9
20260509221818 69 279 11.3 20.0 0.00 0.10 0.00 56 1003.6
20260509220818 69 276 13.9 22.6 0.00 0.11 0.00 54 1003.2
20260509215745 69 272 13.9 20.9 0.00 0.11 0.00 53 1003.6
20260509214745 70 279 12.2 20.9 0.00 0.12 0.00 55 1003.3
20260509213744 70 276 13.0 21.7 0.00 0.13 0.00 54 1003.3
20260509212712 71 269 13.9 20.9 0.00 0.14 0.00 52 1003.3
20260509211711 70 273 13.0 21.7 0.00 0.15 0.00 53 1003.3
20260509210710 71 269 15.6 23.5 0.00 0.15 0.00 51 1003.3
20260509205709 71 266 12.2 21.7 0.00 0.16 0.00 55 1003.6
20260509204708 71 267 13.9 21.7 0.00 0.16 0.00 54 1003.6
20260509203708 70 259 12.2 24.3 0.00 0.16 0.00 54 1003.9
20260509202707 71 252 12.2 24.3 0.00 0.17 0.00 54 1004.0
20260509201706 71 272 10.4 19.1 0.00 0.18 0.00 56 1004.3
20260509200705 71 280 13.9 19.1 0.00 0.18 0.00 55 1004.6
20260509195704 70 281 12.2 20.9 0.00 0.18 0.00 58 1004.6
20260509194703 70 268 9.6 20.9 0.00 0.18 0.00 59 1004.9
20260509193631 70 277 15.6 21.7 0.00 0.18 0.00 57 1004.9